Location: Guayaquil
(2.1667°S, 79.9000°W)
Time: 08:14:00
(UTC-05:00)

Hubble Space Telescope - Visible Passes

Search period start: 19 June 2019 00:00
Search period end: 29 June 2019 00:00
Orbit: 536 x 540 km, 28.5° (Epoch: 18 June)

Date Brightness Start Highest point End Pass type
(mag) Time Alt. Az. Time Alt. Az. Time Alt. Az.
19 Jun 1.8 18:38:46 10° SSW 18:42:24 29° SSE 18:46:00 10° E visible
19 Jun 2.3 20:19:37 10° WSW 20:22:37 36° WNW 20:22:37 36° WNW visible
20 Jun 2.5 20:09:23 10° W 20:13:02 30° NNW 20:14:06 26° N visible
21 Jun 3.1 19:59:19 10° W 20:02:32 21° NNW 20:05:37 10° NNE visible
22 Jun 3.6 19:49:29 10° WNW 19:52:02 16° NNW 19:54:35 10° N visible
23 Jun 3.8 19:40:11 10° NW 19:41:34 11° NNW 19:42:58 10° N visible
24 Jun 3.6 04:12:49 11° N 04:14:28 13° NNE 04:16:29 10° ENE visible
24 Jun 0.9 05:51:33 10° WNW 05:55:39 81° NNE 05:59:47 10° ESE visible
25 Jun 3.3 04:04:20 18° NE 04:04:20 18° NE 04:06:51 10° ENE visible
25 Jun 0.7 05:41:02 10° WNW 05:45:08 70° SSW 05:49:15 10° SE visible
26 Jun 3.6 03:55:50 15° ENE 03:55:50 15° ENE 03:56:54 10° E visible
26 Jun 1.0 05:31:17 14° WNW 05:34:37 48° SSW 05:38:36 10° SE visible
27 Jun 1.5 05:22:39 26° WSW 05:24:07 34° SSW 05:27:52 10° SE visible
28 Jun 2.0 05:13:51 24° SSW 05:13:51 24° SSW 05:17:02 10° SSE visible
